CDT,Max TemperatureF,Mean TemperatureF,Min TemperatureF,Max Dew PointF,MeanDew PointF,Min DewpointF,Max Humidity, Mean Humidity, Min Humidity, Max Sea Level PressureIn, Mean Sea Level PressureIn, Min Sea Level PressureIn, Max VisibilityMiles, Mean VisibilityMiles, Min VisibilityMiles, Max Wind SpeedMPH, Mean Wind SpeedMPH, Max Gust SpeedMPH,PrecipitationIn, CloudCover, Events, WindDirDegrees
2012-9-1,87,74,62,59,52,45,72,46,25,30.11,29.96,29.79,10,10,10,29,15,43,0.00,0,Rain,143
2012-9-2,86,70,51,66,58,50,94,66,34,29.87,29.79,29.73,10,10,10,24,14,34,0.03,0,Rain-Thunderstorm,194
2012-9-3,80,61,42,61,53,43,100,82,37,29.96,29.89,29.85,10,10,8,17,6,21,0.01,1,Rain-Thunderstorm,154
2012-9-4,82,62,41,57,48,39,100,64,21,29.87,29.83,29.80,10,10,0,17,6,26,0.00,0,Fog-Rain,305
2012-9-5,73,60,48,54,46,41,100,62,31,29.92,29.89,29.84,10,10,8,21,12,30,0.00,2,Rain,289
2012-9-6,66,54,41,55,50,41,100,86,56,30.02,29.94,29.89,10,10,6,13,5,,0.00,3,Rain,347
2012-9-7,66,54,42,54,46,41,100,75,40,30.14,30.09,30.02,10,10,10,18,9,26,0.00,5,,327
2012-9-8,68,54,41,50,42,32,100,65,26,30.18,30.05,29.94,10,10,10,28,13,39,0.00,0,,323
2012-9-9,75,54,32,46,38,32,100,61,23,30.22,30.10,29.89,10,10,1,17,5,25,0.00,0,,185
2012-9-10,89,71,53,55,43,37,82,45,21,29.89,29.68,29.57,10,10,10,23,11,31,0.00,0,,184
2012-9-11,71,58,44,54,39,27,94,49,21,29.96,29.74,29.59,10,10,10,29,10,34,0.00,0,Rain-Thunderstorm,337
2012-9-12,69,54,37,36,25,14,75,39,12,30.23,30.11,29.96,10,10,10,30,13,41,0.00,0,,280
2012-9-13,68,50,32,32,27,23,80,45,19,30.31,30.27,30.23,10,10,10,16,8,25,0.00,2,,301
2012-9-14,73,52,32,37,32,27,100,51,18,30.34,30.27,30.16,10,10,10,13,5,28,0.00,0,,143
2012-9-15,86,64,41,45,37,32,87,45,18,30.15,29.96,29.82,10,6,0,18,10,23,0.00,0,,178
2012-9-16,57,49,39,48,44,39,100,74,55,30.12,30.05,29.89,10,10,9,18,12,25,0.00,2,Rain,355
2012-9-17,55,44,32,45,37,28,100,81,36,30.12,30.09,30.05,10,9,0,22,6,26,0.04,3,Fog-Rain,341
2012-9-18,64,48,32,37,34,28,100,64,30,30.07,29.86,29.64,10,10,8,21,9,28,0.00,1,,183
2012-9-19,62,54,44,43,35,27,67,47,26,29.92,29.75,29.58,10,10,6,33,18,47,0.00,1,,307
2012-9-20,62,48,35,39,33,30,87,54,30,29.96,29.91,29.85,10,10,10,20,9,28,0.00,1,Rain,287
2012-9-21,62,48,35,43,35,25,100,66,25,30.13,29.93,29.85,10,10,10,34,10,45,0.00,2,,344
2012-9-22,53,40,28,32,28,23,100,66,33,30.33,30.26,30.13,10,10,10,16,10,29,0.00,0,,335
2012-9-23,60,42,23,32,23,19,100,57,20,30.31,30.23,30.05,10,10,2,10,4,16,0.00,0,,242
2012-9-24,77,58,39,43,31,23,70,42,21,30.04,29.87,29.77,10,10,10,18,11,29,0.00,0,,300
2012-9-25,59,44,30,39,34,28,100,72,36,30.04,29.96,29.91,10,10,10,12,6,,0.00,0,,16
2012-9-26,66,45,24,36,29,23,100,61,21,30.16,30.12,30.04,10,10,10,9,3,,0.00,0,,170
2012-9-27,77,57,37,37,33,28,75,45,22,30.17,30.12,30.07,10,10,9,17,10,22,0.00,0,,179
2012-9-28,80,60,39,43,39,34,81,48,24,30.14,30.09,30.05,10,10,7,10,5,,0.00,0,,172
2012-9-29,82,60,39,43,33,25,87,47,12,30.09,30.03,29.95,10,9,2,18,6,25,0.00,0,,170
2012-9-30,78,61,44,48,40,32,71,46,28,30.01,29.91,29.86,10,10,5,21,11,28,0.00,0,,267